Content
SEND FEEDBACK

Daily
Averages
Monthly
Summary
Canada

BEACONSFIELD, QUEBEC


Home > North America > Canada > Quebec
Elevation: 118 feet     Latitude: 45 28N     Longitude: 073 45W

WEATHER
 
SELECT A DAY
Number of Records: 198,461;   Date Range: 1/1/95 - 8/20/14
 
SHARE

PRINT THIS DATA

[ ← Previous Day ]
WEATHER ALMANAC - DECEMBER 25, 2013
[ Next Day → ]
[ °C ]   °F
Weather ElementAverageHighLow
Temperature0.5 °F6.8 °F (9:00 pm)-6 °F (7:00 am)
Dewpoint-6.1 °F-0.4 °F (8:00 pm)-11.2 °F (7:00 am)
Humidity72.1 %78 % (12:28 am)55 % (1:00 pm)
Barometer30.51 in30.59 in (10:00 am)30.40 in (12:28 am)
Wind Speed8 mph12.7 mph (12:28 am)
Weather ElementAverage
Visibility17.6 mi
Wind DirectionS (179.6 °)

Weather ElementTotal
Precipitation---
Heating Degree Days64.6 (Base 65)
Averaged from 28 records on December 25, 2013
WEATHER CONDITIONS BREAKOUT
WIND DIRECTION BREAKOUT
WEATHER BY HOUR - DECEMBER 25, 2013
[ °C ]   °F
Local TimeTemperatureDewpointHumidityBarometerVisibilityWind DirectionWind SpeedGust SpeedPrecipitationEventsConditions
12:28 AM1.4 °F-4.0 °F78 %30.40 in15.0 miWest (270°)12.7 mphScattered Clouds
1:00 AM1.0 °F-5.0 °F64 %30.41 in15.0 miWest (270°)12.7 mphSnowLight Snow
1:00 AM1.4 °F-5.8 °F72 %30.40 in15.0 miWest (270°)12.7 mphPartly Cloudy
2:00 AM-0.4 °F-5.8 °F78 %30.43 in15.0 miWest (280°)12.7 mphClear
3:00 AM-0.4 °F-7.6 °F72 %30.46 in15.0 miWest (260°)8.1 mphClear
4:00 AM-2.2 °F-7.6 °F78 %30.48 in15.0 miWSW (240°)11.5 mphPartly Cloudy
5:00 AM-4.0 °F-9.4 °F78 %30.50 in15.0 miWSW (250°)9.2 mphPartly Cloudy
6:00 AM-4.0 °F-9.4 °F78 %30.52 in15.0 miWSW (250°)9.2 mphClear
7:00 AM-6.0 °F-11.0 °F69 %30.55 in28.0 miSW (220°)8.1 mphScattered Clouds
7:00 AM-5.8 °F-11.2 °F77 %30.55 in30.0 miSW (220°)8.1 mphPartly Cloudy
8:00 AM-5.8 °F-11.2 °F77 %30.56 in30.0 miSW (230°)8.1 mphPartly Cloudy
9:00 AM-4.0 °F-11.2 °F71 %30.58 in15.0 miWSW (250°)9.2 mphPartly Cloudy
10:00 AM-2.2 °F-9.4 °F71 %30.59 in15.0 miWSW (250°)3.5 mphPartly Cloudy
11:00 AM-0.4 °F-9.4 °F66 %30.58 in30.0 miSSW (210°)4.6 mphPartly Cloudy
12:00 PM1.4 °F-7.6 °F66 %30.59 in30.0 miSSW (210°)9.2 mphMostly Cloudy
1:00 PM1.0 °F-7.0 °F55 %30.57 in15.0 miSSW (200°)8.1 mphScattered Clouds
1:00 PM1.4 °F-7.6 °F66 %30.57 in15.0 miSSW (210°)9.2 mphMostly Cloudy
2:00 PM1.4 °F-5.8 °F72 %30.55 in15.0 miSSW (210°)5.8 mphMostly Cloudy
3:00 PM3.2 °F-5.8 °F66 %30.55 in15.0 miSSW (200°)4.6 mphMostly Cloudy
4:00 PM1.4 °F-4.0 °F78 %30.54 in15.0 miCalmMostly Cloudy
5:00 PM3.2 °F-4.0 °F72 %30.52 in15.0 miESE (120°)8.1 mphMostly Cloudy
6:00 PM3.2 °F-4.0 °F72 %30.52 in15.0 miEast (80°)4.6 mphMostly Cloudy
7:00 PM3.0 °F-2.0 °F69 %30.51 in15.0 miNE (50°)4.6 mphOvercast
7:00 PM3.2 °F-2.2 °F78 %30.51 in15.0 miNE (40°)4.6 mphOvercast
8:00 PM5.0 °F-0.4 °F78 %30.49 in15.0 miNE (50°)6.9 mphOvercast
9:00 PM6.8 °F-2.2 °F67 %30.46 in15.0 miEast (80°)8.1 mphOvercast
10:00 PM6.8 °F-0.4 °F72 %30.43 in15.0 miENE (60°)9.2 mphOvercast
11:00 PM5.0 °F-0.4 °F78 %30.40 in15.0 miNE (50°)11.5 mphOvercast
Hourly data recorded from CYUL, located miles away from Beaconsfield, Quebec







STORIES FROM OUR PARTNERS